510  
ASUS43 KEAX 071115  
RWREAX  
 
WEATHER ROUNDUP FOR EASTERN KANSAS AND NORTHWEST MISSOURI  
NATIONAL WEATHER SERVICE KANSAS CITY/PLEASANT HILL MO  
500 AM CST TUE FEB 07 2023  
 
KSZ040-057-103>105-MOZ028-029-037-043-071200-   
..KANSAS CITY METROPOLITAN AREA
 
 
 
CITY SKY/WX TMP DP RH WIND PRES REMARKS
 
K.C. INTL CLEAR 37 31 78 NW7 30.05R WCI 32  
K.C. DOWNTOWN CLEAR 38 32 79 NW10 30.05R WCI 31  
LEES SUMMIT PTCLDY 37 32 82 NW10 30.06R WCI 30  
OLATHE - IXD CLEAR 35 32 88 W5 30.08R WCI 31  
OLATHE - OJC CLEAR 38 31 76 NW6 30.06R WCI 33  
LAWRENCE CLEAR 29 27 92 NW8 30.08R WCI 21  
 

 
 
MOZ001>008-011>017-020>025-030>033-038>040-044>046-053-054-071200-   
..NORTHERN AND CENTRAL MISSOURI
 
 
 
CITY SKY/WX TMP DP RH WIND PRES REMARKS
 
ST. JOSEPH CLEAR 35 30 82 NW5 30.05R WCI 31  
MOSBY N/A 37 32 81 NW6 30.06 WCI 33  
HARRISONVILLE PTCLDY 37 32 81 NW6 30.09R WCI 33  
WHITEMAN AFB MOCLDY 41 35 79 NW7 30.04R  
CLINTON CLOUDY 41 36 81 W7 30.06R  
SEDALIA CLOUDY 43 34 70 W6 30.04R  
MARSHALL MOCLDY 37 34 87 W3 30.05R  
CHILLICOTHE N/A 38 33 82 NW5 30.02R WCI 34  
MOBERLY CLOUDY 41 32 70 W12 30.01R WCI 34  
KIRKSVILLE PTCLDY 35 30 82 W5 29.99R WCI 31  
 

 
 
MOZ041-047>049-056>058-063>065-088>090-097-071200-   
..EASTERN AND SOUTHERN MISSOURI
 
 
 
CITY SKY/WX TMP DP RH WIND PRES REMARKS
 
ST. LOUIS INTL CLOUDY 58 49 72 SW10 29.94R  
SPIRIT OF STL CLOUDY 57 50 77 W8 29.95R  
COLUMBIA CLOUDY 45 34 65 W12 30.02R  
JEFFERSON CITY CLOUDY 47 35 63 W7 30.03R  
MEXICO CLOUDY 41 34 75 W13G18 29.99R WCI 34  
HANNIBAL CLOUDY 41 32 70 W10 30.00R WCI 35  
ROLLA CLOUDY 49 35 58 NW13 30.00R  
LEBANON RAIN 45 41 87 W8 30.05R  
OSAGE BEACH CLOUDY 47 35 63 VRB3 N/A  
SPRINGFIELD CLOUDY 43 40 89 N8 30.04R  
BRANSON LGT RAIN 50 50 100 NW13G21 30.04R  
JOPLIN CLOUDY 43 39 86 W5 30.09R  
WEST PLAINS CLOUDY 53 48 83 SW3 30.01R  
SIKESTON CLOUDY 54 45 71 S12G20 30.04R  
 

 
 
IAZ060-094-KSZ022-034>040-054-083-096-NEZ052-066-093-071200-    
..KANSAS...SOUTHEAST NEBRASKA AND IOWA
 
 
 
CITY SKY/WX TMP DP RH WIND PRES REMARKS
 
TOPEKA CLEAR 35 30 82 W6 30.09R WCI 30  
MANHATTAN CLEAR 34 29 82 VRB3 30.11R  
EMPORIA CLEAR 35 29 78 NW8 30.08R WCI 29  
OTTAWA FAIR 37 32 81 NW8 30.07R WCI 31  
CHANUTE CLOUDY 42 33 70 N9 30.09R  
SALINA CLEAR 30 26 85 NW5 30.13R WCI 25  
WICHITA MOCLDY 38 31 76 N10 30.12R WCI 31  
OMAHA CLEAR 34 27 75 NW9 30.02R WCI 27  
LINCOLN CLEAR 35 27 72 NW10 30.07R WCI 27  
FALLS CITY CLEAR 33 30 88 W9 30.05R WCI 25  
LAMONI CLEAR 33 29 85 NW8 29.96 WCI 26  
DES MOINES CLOUDY 36 31 82 W14 29.97R WCI 27  
 

 
 
 
 
CLICK HERE TO GO TO PREVIOUS BULLETINS.

The Nexlab MO Page
The Nexlab KS Page Main Text Page